User: anonymous   Login
Location: Unspecified
(0.0000°N, 0.0000°E)
Time: 08:12:29
(UTC+00:00)
Language:

Vela 1A - Orbit

View from above orbital plane
View from above orbital plane
View from above satellite
View from above satellite

Ground track
Ground track

The orbit data is extracted from the following two-line orbital elements,

1 00692U 63039C   15089.34257095 -.00001493  00000-0  00000+0 0  9993
2 00692 034.6787 004.6109 5636849 154.4937 000.9353 00.21967583 41521
Epoch (UTC): 30 March 2015 08:13:18
Eccentricity: 0.5636849
inclination: 34.6787°
perigee height: 44244 km
apogee height: 175044 km
right ascension of ascending node: 4.6109°
argument of perigee: 154.4937°
revolutions per day: 0.21967583
mean anomaly at epoch: 0.9353°
orbit number at epoch: 4152

The dashed part of the orbit path shows where the satellite is in the earth's shadow,  

DLR